Weather History for Montreal Mirabel, QC

Change the Weather History Date:

Saturday, September 14, 2013

  Actual Average Record
Temperature  
Mean Temperature 52 °F -  
Max Temperature 59 °F 68 °F 86 °F (2003)
Min Temperature 44 °F 49 °F 41 °F (2014)
Degree Days  
Heating Degree Days 14    
Growing Degree Days 2 (Base 50)    
Moisture  
Dew Point 48 °F    
Average Humidity 87    
Maximum Humidity 100    
Minimum Humidity 67    
Precipitation  
Precipitation 0.00 in - - ()
Sea Level Pressure  
Sea Level Pressure 29.99 in    
Wind  
Wind Speed 4 mph ()    
Max Wind Speed 7 mph    
Max Gust Speed -    
Averages and records for this station are not official NWS values.
T = Trace of Precipitation, MM = Missing Value Source: Averaged Metar Reports

Daily Weather History Graph

Daily Weather History Graph

Search for Another Location

Airport:

Trip Planner

Search our weather history database for the weather conditions in past years. The results will help you decide how hot, cold, wet, or windy it might be!

Date:

Astronomy

Sep. 14, 2013 Rise Set
Actual Time 6:33 AM EDT 7:08 PM EDT
Civil Twilight 6:03 AM EDT 7:38 PM EDT
Nautical Twilight 5:28 AM EDT 8:14 PM EDT
Astronomical Twilight 4:51 AM EDT 8:50 PM EDT
Moon 3:59 PM EDT (9/14) 12:49 AM EDT (9/14)
Length of Visible Light 13h 35m
Length of Day
12h 35m
Waxing Gibbous, 72% of the Moon is Illuminated
Sep 14
Waxing Gibbous
Sep 19
Full
Sep 26
Last Quarter
Oct 4
New
Oct 11
First Quarter

Hourly Weather History & Observations

Time (EDT) Temp. Windchill Dew Point Humidity Pressure Visibility Wind Dir Wind Speed Gust Speed Precip Events Conditions
12:00 AM 50.0 °F - 50.0 °F 100% 29.92 in 25.0 mi West 4.6 mph - N/A   Overcast
1:00 AM 50.0 °F - 50.0 °F 100% 29.90 in 25.0 mi West 5.8 mph - N/A   Overcast
2:00 AM 50.0 °F - 48.2 °F 94% 29.92 in 25.0 mi WNW 4.6 mph - N/A   Overcast
3:00 AM 50.0 °F - 48.2 °F 94% 29.93 in 25.0 mi West 4.6 mph - N/A   Overcast
4:00 AM 48.2 °F - 48.2 °F 100% 29.94 in 25.0 mi West 4.6 mph - N/A   Overcast
5:00 AM 48.2 °F - 46.4 °F 93% 29.95 in 25.0 mi West 4.6 mph - N/A   Overcast
6:00 AM 48.2 °F - 46.4 °F 93% 29.96 in 25.0 mi WSW 3.5 mph - N/A   Mostly Cloudy
7:00 AM 48.2 °F - 46.4 °F 93% 29.97 in 45.0 mi WSW 2.3 mph - N/A   Mostly Cloudy
8:00 AM 50.0 °F - 48.2 °F 94% 29.99 in 45.0 mi SW 2.3 mph - N/A   Mostly Cloudy
9:00 AM 50.0 °F - 48.2 °F 94% 30.00 in 45.0 mi West 3.5 mph - N/A   Mostly Cloudy
10:00 AM 51.8 °F - 48.2 °F 88% 30.01 in 45.0 mi WSW 5.8 mph - N/A   Mostly Cloudy
10:13 AM 51.8 °F - 48.2 °F 88% 30.01 in 45.0 mi SSW 6.9 mph - N/A   Mostly Cloudy
11:00 AM 53.6 °F - 48.2 °F 82% 30.01 in 45.0 mi SW 4.6 mph - N/A   Mostly Cloudy
12:00 PM 55.4 °F - 48.2 °F 77% 30.00 in 45.0 mi WSW 4.6 mph - N/A   Overcast
1:00 PM 57.2 °F - 48.2 °F 72% 30.00 in 45.0 mi West 5.8 mph - N/A   Overcast
2:00 PM 59.0 °F - 48.2 °F 67% 29.99 in 45.0 mi WNW 6.9 mph - N/A   Overcast
3:00 PM 57.2 °F - 48.2 °F 72% 29.99 in 45.0 mi WSW 6.9 mph - N/A   Overcast
4:00 PM 57.2 °F - 48.2 °F 72% 29.99 in 45.0 mi WSW 5.8 mph - N/A   Overcast
5:00 PM 57.2 °F - 48.2 °F 72% 30.01 in 45.0 mi WSW 3.5 mph - N/A   Overcast
6:00 PM 55.4 °F - 48.2 °F 77% 30.02 in 45.0 mi WSW 4.6 mph - N/A   Mostly Cloudy
7:00 PM 53.6 °F - 48.2 °F 82% 30.03 in 25.0 mi SW 2.3 mph - N/A   Partly Cloudy
8:00 PM 50.0 °F - 46.4 °F 87% 30.04 in 25.0 mi SW 3.5 mph - N/A   Partly Cloudy
9:00 PM 46.4 °F 45.2 °F 44.6 °F 93% 30.05 in 25.0 mi SSW 3.5 mph - N/A   Partly Cloudy
10:00 PM 44.6 °F - 44.6 °F 100% 30.05 in 25.0 mi Variable 2.3 mph - N/A   Partly Cloudy
11:00 PM 46.4 °F 45.2 °F 46.4 °F 100% 30.04 in 25.0 mi SW 3.5 mph - N/A   Partly Cloudy